Flag for Germany Weather past 2 weeks in Alsfeld, Hesse, Germany

Now
73 °F

Passing clouds.


Feels Like: 77 °F
Forecast: 50 / 78 °F
Wind: 3 mph from Northeast

Location: Fritzlar

Current Time: Aug 1, 2015 at 2:48:24 PM

Latest Report: Aug 1, 2015 at 2:00 PM


Visibility: 28 mi

Pressure: 29.96 "Hg

Humidity: 40%

Dew point: 47 °F

Location of AlsfeldLocation

Historic Weather in Alsfeld — Graph

°F

Alsfeld temperature yesterday

Maximum temperature yesterday: 66 °F (at 5:00 PM)
Minimum temperature yesterday: 45 °F (at 5:00 AM)
Average temperature yesterday: 57 °F

Past Weeks' High & Low Weather Summary

 TemperatureHumidityPressure
High93 °F (Jul 17, 5:00 PM)98% (Jul 20, 4:00 AM)30.15 "Hg (Jul 20, 4:00 AM)
Low45 °F (Jul 31, 5:00 AM)25% (Jul 17, 6:00 PM)29.58 "Hg (Jul 25, 10:00 AM)
Average65 °F69%29.89 "Hg
* Reported Jul 17 1:00 PM — Aug 1 1:00 PM, Alsfeld, Weather by CustomWeather, © 2015

Note: Actual official high and low records may vary slightly from our data, if they occured in-between our weather recording intervals... More about our weather records

Advertising

Alsfeld weather history for previous 24 hours

 ConditionsComfort  
Time TempWeatherWind HumidityBarometerVisibility
1:00 PM
Sat, Aug 1
71 °FScattered clouds.3 mph44%29.98 "Hg25 mi
12:00 PM68 °FPartly sunny.2 mph46%29.99 "Hg25 mi
11:00 AM64 °FPartly sunny.2 mph50%30.00 "Hg25 mi
10:00 AM59 °FPartly sunny.2 mph61%30.01 "Hg25 mi
9:00 AM55 °FOvercast.3 mph72%30.01 "Hg25 mi
8:00 AM51 °FOvercast.3 mph79%30.01 "Hg25 mi
7:00 AM49 °FOvercast.3 mph84%30.02 "Hg25 mi
6:00 AM49 °FOvercast.3 mph80%30.02 "Hg16 mi
5:00 AM49 °FOvercast.3 mph81%30.03 "Hg13 mi
4:00 AM49 °FOvercast.3 mph80%30.05 "Hg11 mi
3:00 AM49 °FOvercast.3 mph80%30.05 "Hg11 mi
2:00 AM49 °FPassing clouds.2 mph78%30.06 "Hg11 mi
1:00 AM50 °FPassing clouds.3 mph79%30.07 "Hg11 mi
12:00 AM52 °FPassing clouds.1 mph72%30.06 "Hg11 mi
11:00 PM
Fri, Jul 31
51 °FPassing clouds.N/A71%30.06 "Hg11 mi
10:00 PM58 °FPassing clouds.2 mph56%30.05 "Hg16 mi
9:00 PM63 °FScattered clouds.2 mph43%30.04 "Hg19 mi
8:00 PM65 °FPassing clouds.3 mph36%30.04 "Hg25 mi
7:00 PM66 °FScattered clouds.2 mph36%30.05 "Hg25 mi
6:00 PM66 °FPartly sunny.2 mph35%30.06 "Hg25 mi
5:00 PM66 °FPassing clouds.2 mph37%30.06 "Hg25 mi
4:00 PM66 °FPartly sunny.3 mph37%30.07 "Hg25 mi
3:00 PM64 °FPartly sunny.3 mph40%30.10 "Hg25 mi
2:00 PM64 °FScattered clouds.2 mph42%30.11 "Hg25 mi
Weather by CustomWeather, © 2015

See weather overviewHow to use our weather pages